User: anonymous   Login
Location: Columbia
(38.9520°N, 92.3340°W)
Time: 22:43:24
(UTC-05:00)
Language:

FENGYUN 3A - Orbit

View from above orbital plane
View from above orbital plane
View from above satellite
View from above satellite

Ground track
Ground track

The orbit data is extracted from the following two-line orbital elements,

1 32958U 08026A   18170.82865881 -.00000011  00000-0  14112-4 0  9992
2 32958  98.3811 185.5552 0008561 296.7112  63.3181 14.19706370521499
Epoch (UTC): 19 June 2018 19:53:16
Eccentricity: 0.0008561
inclination: 98.3811°
perigee height: 820 km
apogee height: 832 km
right ascension of ascending node: 185.5552°
argument of perigee: 296.7112°
revolutions per day: 14.19706370
mean anomaly at epoch: 63.3181°
orbit number at epoch: 52149

The dashed part of the orbit path shows where the satellite is in the earth's shadow,  

DLR